Regional Weather Roundup
Issued by NWS Green Bay, WI

Home | Current Version | Previous Version | Graphics & Text | Print | Product List | Glossary Off
Versions: 1 2 3 4 5 6 7 8 9 10 11 12 13 14 15 16 17 18 19 20 21 22 23 24 25 26 27 28 29 30 31 32 33 34 35 36 37 38 39 40 41 42 43 44 45 46 47 48 49 50

000
ASUS43 KGRB 021810
RWRGRB

NORTH-CENTRAL AND NORTHEAST WISCONSIN REGIONAL WEATHER ROUNDUP
NATIONAL WEATHER SERVICE GREEN BAY WI
100 PM CDT TUE SEP 02 2014

WIZ005-009-010>012-018-019-021900-
NORTH CENTRAL WISCONSIN

CITY           SKY/WX    TMP DP  RH WIND       PRES   REMARKS
IRONWOOD       NOT AVBL
MANITOWISH WTR SUNNY     69  49  49 W7        29.87S
ARBOR VITAE    SUNNY     72  56  57 W7        29.87F
EAGLE RIVER    SUNNY     69  49  48 W9        29.86S
LAND O LAKES   SUNNY     70  50  48 NW10      29.87S
RHINELANDER    SUNNY     71  51  49 W10       29.88S
PHILLIPS       SUNNY     70  54  55 CALM      29.87S
ANTIGO         MOSUNNY   70  58  66 SW8       29.88S
TOMAHAWK       SUNNY     71  51  48 W5G18     29.89R
MERRILL        SUNNY     72  57  58 W7        29.88R
$$

WIZ013-073-021900-
NORTHEAST WISCONSIN

CITY           SKY/WX    TMP DP  RH WIND       PRES   REMARKS
IRON MOUNTAIN  PTSUNNY   73  54  51 NW9       29.83S
MARINETTE      CLOUDY    66  59  77 W8        29.84S
OCONTO         CLOUDY    69  60  72 SW6       29.85F
$$

WIZ017-030-035>037-045-021900-
CENTRAL WISCONSIN

CITY           SKY/WX    TMP DP  RH WIND       PRES   REMARKS
MEDFORD        SUNNY     71  56  57 W10       29.89R
WAUSAU         MOSUNNY   73  56  54 W9G16     29.87S
MOSINEE        MOSUNNY   73  57  56 W7        29.90R
MARSHFIELD     PTSUNNY   74  60  61 W12       29.89S
WISC RAPIDS    MOSUNNY   75  57  53 W7        29.91S
STEVENS POINT  MOSUNNY   70  56  62 W7G16     29.89S
WAUPACA        SUNNY     77  59  54 W9        29.88S
SHAWANO        MOSUNNY   74  61  64 W7        29.87F
CLINTONVILLE   PTSUNNY   72  61  68 W6        29.87F
$$

WIZ038-039-048-051-021900-
FOX VALLEY

CITY           SKY/WX    TMP DP  RH WIND       PRES   REMARKS
NWS GREEN BAY  PTSUNNY   70  60  70 SW8       29.87S
APPLETON       PTSUNNY   72  61  68 SW7       29.89S
OSHKOSH        MOSUNNY   75  61  61 W9        29.88F
FOND DU LAC    MOSUNNY   75  59  57 W9        29.89F
$$

WIZ022-050-052-021900-
EAST CENTRAL WISCONSIN

CITY           SKY/WX    TMP DP  RH WIND       PRES   REMARKS
STURGEON BAY   CLOUDY    64  59  82 NW3       29.87S
MANITOWOC      CLOUDY    74  63  68 VRB6      29.88F
SHEBOYGAN      PTSUNNY   74  61  63 W12       29.89S
$$

LMZ563-521-522-541>543-021900-
LAKESHORE

STATION/POSITION TIME  TEMP    WIND        PRES    VSBY  WAVE
                       AIR SEA DIR/SP/G                  HT/PER
                 (UTC) (F)     (DEG/KT/KT) (MB)    (MI)  (FT/S)
SHEBOYGAN LKSHOR 1800   73 50  280/ 11/ 13 1011.9F
KEWAUNEE LKSHORE 1800   71     230/  2/  4 1010.6F
NORTHPORT PIER   1800   66     250/  4/  8 1010.5S
N MID LAKE BUOY  1800   65 65  240/ 10/ 14 1010.3F         1/ 5
S GREEN BAY BUOY 1800   67     VRB  8/ 10  1012.0F
STURGEON BAY CG  1800   68 59  150/  3     1011.7      6   0
CHAMBERS ISLAND  1800   66     210/  4/  9 1011.2R
MENOMINEE LKSHOR 1800   66     260/  6/ 10 1011.3R
$$



USA.gov is the U.S. government's official web portal to all federal, state and local government web resources and services.